sat.trackr.live / text

‹ back to catalog

STARLINK-35677

NORAD 66220 · 2025-244Q

PAYLOAD ACTIVE UNKNOWN

§ Identity

Operator
Country
US
Launch date
2025-10-28
Launch site
AFWTR
Launch vehicle
Mass (kg)
RCS (m²)

Purposes: comms

External: N2YO · Heavens-Above · Gunter

§ Orbital elements

Epoch: 2026-05-24T23:34:00.046272Z

Period
94.10 min
Inclination
53.1582°
Eccentricity
0.0000902
Mean motion
15.30205646 rev/d
Perigee alt
474.6 km
Apogee alt
475.8 km
Semi-major
6,853.3 km
B*
5.3102e-4
RAAN
235.2942°
Arg perigee
93.2515°
Mean anomaly
266.8589°
Rev number
3,334

§ Raw data

STARLINK-356771 66220U 25244Q   26144.98194498  .00015404  00000+0  53102-3 0  99992 66220  53.1582 235.2942 0000902  93.2515 266.8589 15.30205646 33344

JSON: /api/v1/satellites/66220 · /tle

For live sub-satellite position, see the globe view (requires WebGL).

§ Visibility from observer

Set your observer location to see the next 7 days of passes ≥ 10°. The values pass through the URL so the page stays shareable.

No JS? Fill the form by hand. The geolocation button needs JavaScript.